{"data":{"norad_id":82708,"intl_designator":"","name":"UNKNOWN","alt_names":[],"object_type":"UNKNOWN","status":"UNKNOWN","operator":null,"country":null,"launch_date":null,"launch_site_code":null,"launch_vehicle":null,"mission":null,"orbit_class":"UNKNOWN","rcs_meters":null,"size_class":null,"mass_kg":null,"dimensions":null,"purposes":[],"wikipedia_slug":null,"has_3d_model":false,"image_url":null,"decayed_at":null,"tle_current":{"epoch":"2026-09-17T02:37:29.443584Z","epoch_age_seconds":311305,"freshness":"STALE","line1":"1 82708U          26260.10936856  .00000744  00000+0  29723-2 0  9998","line2":"2 82708 102.1469 135.0892 0065993  78.7153 282.1346 12.91058347559433","mean_motion":12.91058347,"eccentricity":0.0065993,"inclination_deg":102.1469,"raan_deg":135.0892,"arg_perigee_deg":78.7153,"mean_anomaly_deg":282.1346,"bstar":0.0029723,"rev_number":55943,"period_min":111.53639983399,"perigee_km":1246.6735323722,"apogee_km":1347.9789011852,"semimajor_km":7675.4632167787,"source":"CELESTRAK","updated_at":"2026-09-20T09:00:32.438397Z"}}}